Temperature
26 23 22 22 23 24 25 26 26 27 28 28 26 26 25 25 25 24 23 23 23 23 23 23 23 22 22 21 21 21 20 20 20 19 19 19 19 19 18 18 18 18 18 18
23 22 23 24 25 26 26 26 26 27 28 28 26 26 26 25 24 24 24 23 23 23 23 23 23 22 22 21 21 21 20 20 20 20 19 19 19 19 18 18 18 18 18 18
22 23 26 26 26 26 26 26 26 27 27 27 27 25 25 24 24 24 24 23 23 23 23 22 22 22 22 21 21 20 20 20 20 19 19 19 18 18 18 18 18 18 18 18
23 25 26 26 26 26 25 27 28 28 26 24 25 23 23 23 23 23 23 23 23 23 23 22 22 22 22 21 21 20 20 20 19 19 19 19 19 19 19 19 18 18 18 18
23 25 26 26 27 27 26 28 28 28 26 24 24 23 22 22 22 22 22 23 23 23 23 22 22 22 22 21 21 20 20 19 19 19 19 18 19 19 19 18 18 18 18 18
24 26 26 26 28 28 28 27 25 22 21 22 23 23 22 21 22 22 22 23 23 23 23 22 22 22 21 21 20 20 19 19 19 19 18 18 18 18 18 18 18 18 18 18
24 25 26 28 27 27 27 23 21 22 21 21 22 23 22 23 23 23 22 22 22 22 22 22 22 21 21 21 20 20 19 19 19 18 18 18 18 18 18 18 18 18 18 18
23 23 25 27 26 25 25 22 21 22 22 21 22 23 22 23 23 23 23 23 22 22 22 22 22 21 21 20 20 19 19 19 18 18 18 18 18 18 18 18 18 18 18 18
22 22 26 28 28 26 26 23 21 20 22 22 21 22 23 23 22 22 22 22 21 22 22 22 21 21 21 20 20 20 19 19 18 18 18 18 18 17 17 17 18 18 18 18
23 23 25 27 28 27 26 24 20 20 21 21 22 22 21 22 21 21 21 20 21 21 21 21 21 21 20 20 20 19 19 18 18 18 18 17 17 17 17 17 17 17 17 17
22 23 23 25 26 25 26 25 22 19 19 20 21 21 22 21 21 21 20 20 21 21 21 21 21 20 20 20 20 19 19 18 18 18 18 17 17 17 17 17 17 17 17 17
22 21 21 23 25 26 25 24 21 21 21 19 20 20 22 21 21 21 20 20 20 20 21 21 20 20 20 19 19 19 19 18 18 18 18 17 17 17 17 17 17 17 17 17
23 20 21 22 23 25 25 24 22 20 19 19 20 21 21 20 20 20 20 20 20 20 20 20 20 20 19 19 19 19 18 18 18 18 18 17 17 17 17 17 17 16 16 16
23 20 20 22 22 24 25 25 24 20 20 20 20 20 20 19 19 19 20 20 20 20 20 20 20 19 19 19 19 18 18 18 18 17 17 17 17 17 17 17 16 16 16 16
22 21 22 22 24 25 25 26 25 23 21 21 21 20 20 19 19 19 20 20 19 19 19 19 19 19 19 19 18 18 18 18 17 17 17 17 17 16 16 16 16 16 16 16
19 21 22 23 24 25 25 25 25 25 24 22 21 20 19 19 19 19 19 19 19 19 19 19 19 18 18 18 18 18 17 17 17 17 17 16 16 16 16 15 15 15 15 15
18 20 20 21 23 24 23 23 24 24 23 22 21 20 18 18 18 19 19 19 18 18 18 18 18 18 18 18 18 17 17 17 17 16 16 16 16 16 15 15 15 15 15 15
19 18 17 19 22 22 21 22 23 23 23 22 21 19 19 18 19 19 20 19 19 18 18 18 18 18 18 17 17 17 17 17 16 16 16 16 15 15 15 15 15 14 14 14
18 18 17 17 19 20 22 22 22 22 20 20 20 19 19 18 18 18 19 19 19 19 18 18 18 18 17 17 17 17 16 16 16 16 15 15 15 15 14 14 14 14 14 14
18 17 17 18 20 20 21 22 22 21 19 20 19 19 18 18 17 17 18 18 18 18 18 18 17 17 17 17 16 16 16 16 16 15 15 15 15 14 14 14 14 14 14 13
18 17 18 18 19 19 20 21 22 20 19 19 19 19 19 18 18 18 17 17 18 18 17 17 17 17 16 16 16 16 15 15 15 15 15 15 14 14 14 14 13 13 13 13
16 16 17 16 18 18 19 20 19 18 18 19 19 19 18 18 17 17 17 17 17 17 17 17 16 16 16 15 15 15 15 15 14 14 14 14 14 13 13 13 13 13 13 13
15 15 15 16 16 17 18 19 19 19 18 19 19 19 19 17 17 16 16 16 16 16 16 16 16 15 15 15 15 15 14 14 14 14 13 13 13 13 13 13 13 13 12 12
15 14 14 15 15 16 17 18 19 19 19 19 19 19 18 17 16 16 16 16 15 15 15 15 15 15 14 14 14 14 14 13 13 13 13 12 12 12 12 12 12 12 12 12
14 14 14 14 15 15 16 17 18 18 19 18 18 18 17 17 16 15 15 15 15 15 15 15 15 14 14 14 13 13 13 13 13 12 12 12 12 12 12 11 11 11 11 11
13 13 13 14 14 14 15 16 17 17 17 17 17 16 16 16 15 15 14 14 14 14 14 14 14 14 13 13 13 13 12 12 12 12 12 11 11 11 11 11 11 10 10 10
Wind_Speed
2 3 5 9 9 8 6 7 9 8 5 3 6 7 10 12 12 12 12 12 11 10 8 9 11 12 11 11 10 11 11 10 8 5 5 5 5 5 5 6 10 13 12 12
1 7 12 9 8 8 9 8 8 7 4 1 5 6 7 10 13 14 14 13 12 10 8 8 9 11 11 12 11 10 11 11 9 6 5 4 4 4 5 5 7 12 12 11
9 8 6 9 10 9 9 7 6 5 4 4 4 3 1 3 5 8 10 12 12 14 13 12 11 10 10 11 11 10 10 10 9 7 5 4 3 2 2 4 5 7 11 12
8 11 9 9 10 8 9 9 6 3 2 3 3 1 5 2 3 8 10 10 11 11 12 12 11 10 11 10 10 9 9 9 8 8 7 7 6 5 5 5 5 6 9 10
8 7 9 10 12 9 9 8 3 1 2 2 3 3 5 0 4 7 9 12 12 11 12 12 11 10 9 9 9 9 9 9 8 8 8 7 6 5 4 4 5 6 6 8
9 8 6 10 10 8 6 3 7 7 6 2 4 3 4 4 8 9 9 11 11 10 10 9 8 8 7 7 8 8 9 8 8 8 8 7 7 6 5 5 6 6 5 6
7 10 9 6 6 6 2 5 4 5 4 5 4 3 7 7 7 10 12 11 10 10 10 9 8 8 8 8 8 7 8 7 7 8 7 7 7 7 7 7 7 7 5 5
6 8 8 6 9 8 6 10 8 5 5 5 4 3 5 2 5 8 10 10 10 9 9 9 9 8 8 9 8 8 7 6 7 7 7 6 6 5 5 6 6 7 6 7
8 8 7 8 8 11 7 7 10 8 2 0 4 3 5 4 7 7 8 8 9 10 10 9 8 8 7 7 7 8 7 6 5 6 6 6 6 5 5 5 5 5 5 6
8 5 8 6 4 6 10 9 7 6 4 3 3 2 4 3 5 6 6 6 6 7 8 8 8 7 6 6 6 6 6 6 4 4 5 5 4 5 4 4 4 4 5 5
10 6 8 4 5 9 6 6 6 6 6 6 3 6 5 9 9 9 8 6 7 7 8 8 6 6 6 6 6 6 5 4 3 3 3 2 2 2 2 2 3 3 3 4
10 7 7 9 8 9 9 10 9 6 5 6 5 5 3 6 8 9 9 7 7 7 7 8 8 7 6 5 5 6 5 5 4 3 3 3 2 2 2 2 2 2 2 3
9 7 3 8 8 1 4 6 8 8 6 6 5 4 2 7 8 9 10 9 9 8 8 8 8 7 5 5 5 5 5 5 4 4 4 3 3 3 3 2 1 2 2 1
9 6 8 10 8 5 3 5 6 8 6 6 8 7 4 8 10 8 9 10 10 10 10 8 7 6 5 5 5 6 5 5 5 4 4 4 3 3 3 2 2 2 2 2
7 6 6 6 6 3 3 3 5 6 9 9 10 11 13 13 13 12 11 11 11 11 10 9 8 6 6 6 6 6 5 5 5 5 4 3 3 3 3 3 3 3 3 3
4 5 4 2 2 1 2 2 3 4 5 7 9 6 7 8 8 9 10 11 12 11 11 9 8 7 6 6 6 6 6 5 6 6 5 4 4 4 4 3 3 4 4 4
2 4 4 2 2 3 4 4 3 3 4 9 9 9 11 10 12 12 12 11 10 10 11 10 9 8 6 5 6 6 6 6 7 6 6 5 5 5 4 4 4 4 4 5
3 3 4 2 2 3 7 4 2 3 1 4 7 12 16 14 10 8 10 11 11 10 10 9 8 7 6 6 6 7 7 7 7 6 6 5 5 5 5 5 5 4 5 5
5 6 4 4 3 4 5 4 1 4 2 1 11 15 13 13 10 5 5 8 9 9 10 9 8 8 8 8 8 8 7 7 7 6 5 5 5 5 5 5 5 4 6 6
4 5 5 4 3 5 6 5 2 7 2 0 11 16 16 12 8 5 6 9 10 10 9 8 8 8 8 7 8 9 7 7 6 5 5 4 5 5 5 5 5 5 6 6
3 3 4 4 4 5 6 4 2 5 6 4 10 12 11 5 6 10 11 10 10 10 10 10 10 8 7 7 8 9 8 6 5 5 5 5 5 5 5 6 5 6 7 8
2 2 3 4 4 7 4 1 4 6 6 9 11 11 10 11 14 12 12 12 11 11 11 10 10 8 6 7 9 9 7 6 6 7 7 7 6 6 6 6 6 6 7 8
1 3 4 5 5 5 3 3 4 8 10 9 10 12 15 15 14 12 11 11 10 10 9 9 10 9 7 6 8 9 7 6 8 8 8 7 8 7 6 6 6 6 6 6
3 2 1 1 1 2 4 5 6 8 10 11 13 15 16 16 15 13 10 10 9 9 9 9 10 10 8 6 7 7 7 7 9 9 7 7 8 9 9 7 6 6 5 5
3 2 2 2 1 5 7 5 6 9 13 15 13 12 14 18 15 12 10 10 9 8 8 8 9 9 8 8 7 7 7 8 9 9 8 8 8 9 9 9 8 7 6 4
2 2 3 4 4 3 1 1 6 10 12 14 16 13 12 14 15 13 10 8 9 9 8 9 9 9 9 8 8 6 6 8 9 8 7 6 7 7 8 9 10 15 12 14
Wind_Direction
229 128 224 230 214 218 259 285 285 278 262 159 164 171 180 177 173 172 174 175 176 181 175 171 167 165 160 162 164 167 167 169 165 162 160 159 170 172 177 183 183 181 180 175
321 248 234 234 248 251 263 275 283 297 299 126 167 186 179 175 182 178 175 174 169 164 160 168 163 167 168 168 174 173 173 173 173 173 167 162 158 173 179 184 183 183 181 178
210 239 232 233 254 263 272 253 252 262 328 20 99 355 245 195 166 170 169 169 167 167 166 174 175 176 171 173 176 179 178 175 173 165 147 134 118 122 161 185 191 192 185 185
241 250 257 253 249 238 264 261 251 265 45 304 102 207 280 212 167 175 177 167 170 169 170 178 177 179 181 180 174 171 172 171 170 164 164 165 172 183 194 189 188 190 188 186
239 235 228 238 241 229 235 258 270 260 111 19 12 120 282 220 177 191 185 176 179 177 172 176 179 178 175 169 171 169 170 172 171 171 174 175 184 190 179 175 180 193 195 192
251 265 232 225 240 229 233 355 17 41 67 8 260 149 257 228 203 187 181 176 174 169 165 165 167 155 148 151 162 167 169 175 175 176 179 179 183 186 181 187 192 198 200 201
287 279 262 247 251 273 125 88 27 357 11 257 267 158 238 238 191 170 165 169 167 161 159 157 152 152 153 155 163 168 169 176 178 177 182 184 186 190 196 197 199 198 199 204
225 271 252 224 200 204 188 142 159 191 218 278 330 222 266 271 138 139 141 151 159 159 156 158 158 155 161 164 166 166 168 177 179 182 190 191 191 197 205 204 199 201 206 209
201 246 264 235 201 167 173 177 172 145 172 314 300 307 338 61 96 114 122 134 153 162 160 158 153 151 154 158 165 166 167 172 178 185 193 194 196 202 208 206 201 203 205 208
184 252 278 262 208 194 171 165 110 127 165 236 283 257 214 184 150 138 128 139 148 154 153 147 149 151 150 152 152 150 159 170 173 176 185 189 193 200 199 194 198 200 203 203
183 211 287 327 201 205 180 153 133 139 157 160 213 264 234 183 162 146 138 147 147 142 139 138 139 142 145 141 138 145 155 149 150 156 156 153 164 175 172 181 201 206 204 191
181 168 243 260 249 203 179 181 154 161 210 163 163 256 306 157 142 133 130 130 135 131 137 132 130 124 125 121 130 140 145 140 141 141 140 148 150 142 148 182 196 185 187 190
168 151 212 315 325 276 180 183 168 149 139 155 162 235 10 118 125 130 135 136 137 132 125 117 117 121 124 129 133 136 134 135 136 133 133 124 118 120 119 124 135 142 151 161
146 135 170 203 220 210 204 212 169 137 159 190 193 181 178 148 145 145 141 144 150 138 127 122 120 123 128 131 128 127 128 131 129 122 119 116 114 115 106 91 92 103 118 120
124 158 186 203 210 191 204 225 193 172 182 179 192 177 188 176 165 158 149 145 144 139 133 132 125 122 124 118 115 120 121 122 123 119 116 114 106 100 90 80 86 86 90 99
74 147 165 237 263 359 321 289 233 209 184 159 146 178 181 161 147 139 145 147 145 142 137 133 125 120 122 128 127 120 118 118 117 115 108 102 99 94 87 86 93 89 86 86
28 109 114 224 314 33 305 272 235 213 174 158 176 189 156 155 158 153 146 142 143 140 135 135 134 136 138 133 124 124 120 108 103 104 103 98 97 93 87 91 100 99 93 88
138 99 123 142 73 221 245 265 181 146 165 175 161 156 158 153 147 143 144 143 142 141 135 134 134 131 124 113 112 111 106 103 101 98 96 97 98 90 81 78 91 102 97 94
151 134 116 125 171 260 291 299 122 122 12 76 139 141 138 125 102 87 121 132 137 136 133 129 125 120 114 113 116 108 99 98 96 93 89 87 93 94 87 83 83 98 101 95
67 106 120 126 154 219 243 262 177 103 35 41 142 147 146 133 139 169 145 124 120 119 118 119 116 110 112 115 115 108 104 99 96 95 93 87 87 92 93 96 92 89 97 97
19 45 130 157 191 247 251 272 93 139 199 158 136 145 144 150 154 140 127 119 117 113 115 112 110 107 113 117 112 108 105 101 101 96 93 84 80 87 94 92 90 92 93 89
188 167 183 155 180 239 268 43 157 176 150 130 128 130 122 116 114 117 119 120 117 112 111 112 110 107 105 110 112 108 104 102 98 93 87 82 76 84 89 91 87 88 94 95
183 196 189 187 209 249 255 172 152 139 132 133 132 130 131 126 124 124 120 119 117 115 113 112 113 108 98 100 113 114 111 109 104 95 87 83 77 70 70 79 84 86 92 99
323 349 85 70 357 15 45 82 108 124 126 130 132 132 132 127 127 125 121 120 117 117 118 117 115 114 107 100 102 110 113 110 105 100 91 86 85 75 63 61 64 76 83 97
277 354 41 62 50 44 30 46 98 105 113 115 114 118 127 128 128 129 126 123 125 124 117 115 117 117 115 112 105 104 109 109 105 103 99 93 89 90 79 68 56 63 53 93
242 174 164 205 203 142 172 353 101 111 119 125 121 111 111 118 121 119 117 116 119 119 117 115 114 115 113 110 107 103 105 112 112 109 107 103 101 98 95 92 76 57 64 67
Height
1492 1499 1504 1500 1499 1501 1501 1503 1503 1493 1482 1485 1490 1492 1492 1494 1496 1497 1499 1502 1506 1508 1511 1515 1518 1520 1522 1524 1526 1527 1530 1533 1535 1537 1538 1540 1542 1544 1546 1548 1550 1552 1555 1557
1498 1500 1492 1491 1492 1495 1498 1502 1500 1490 1480 1484 1490 1491 1489 1491 1492 1492 1495 1499 1503 1507 1511 1513 1516 1518 1519 1521 1524 1525 1527 1530 1532 1534 1537 1538 1540 1542 1544 1546 1548 1550 1553 1555
1499 1491 1485 1489 1492 1495 1495 1498 1495 1493 1486 1484 1490 1499 1495 1491 1492 1494 1495 1497 1501 1503 1506 1510 1513 1515 1517 1519 1522 1524 1526 1527 1530 1532 1534 1537 1539 1541 1542 1544 1546 1548 1550 1553
1492 1484 1485 1488 1490 1490 1498 1484 1484 1486 1496 1506 1498 1519 1504 1495 1494 1494 1495 1497 1499 1502 1504 1508 1510 1512 1514 1516 1519 1521 1523 1526 1527 1529 1531 1533 1535 1536 1538 1541 1543 1545 1548 1550
1489 1480 1483 1486 1483 1481 1485 1477 1480 1484 1494 1506 1504 1515 1512 1498 1499 1495 1494 1495 1497 1499 1502 1505 1507 1509 1511 1514 1516 1519 1521 1523 1525 1527 1528 1530 1533 1535 1537 1539 1541 1543 1545 1547
1482 1475 1476 1476 1473 1473 1474 1479 1486 1495 1506 1521 1509 1513 1515 1502 1495 1492 1492 1492 1494 1497 1500 1503 1506 1508 1509 1511 1513 1517 1519 1521 1523 1524 1526 1528 1530 1532 1534 1536 1538 1540 1542 1544
1485 1476 1470 1470 1475 1473 1477 1500 1522 1523 1532 1527 1507 1509 1509 1489 1484 1485 1488 1490 1493 1496 1499 1502 1504 1506 1508 1510 1512 1515 1517 1519 1520 1522 1523 1525 1528 1530 1531 1533 1535 1537 1538 1540
1496 1492 1471 1466 1471 1479 1481 1496 1524 1533 1535 1526 1509 1511 1499 1484 1483 1484 1486 1489 1493 1496 1498 1501 1504 1505 1508 1510 1511 1513 1515 1517 1518 1520 1521 1523 1525 1527 1529 1531 1532 1533 1535 1537
1492 1489 1465 1460 1460 1467 1479 1490 1493 1513 1518 1525 1520 1506 1494 1486 1487 1488 1490 1492 1494 1495 1497 1500 1503 1506 1508 1510 1511 1512 1514 1515 1517 1519 1519 1520 1523 1524 1526 1527 1529 1530 1532 1534
1476 1484 1468 1459 1458 1460 1467 1476 1498 1513 1527 1533 1521 1513 1509 1496 1492 1491 1493 1495 1496 1497 1498 1501 1503 1506 1508 1510 1511 1512 1514 1515 1516 1517 1518 1519 1521 1522 1523 1524 1525 1526 1528 1530
1468 1482 1476 1467 1467 1470 1470 1477 1489 1506 1513 1527 1531 1519 1490 1489 1487 1490 1493 1495 1496 1498 1500 1501 1504 1507 1508 1510 1511 1513 1514 1515 1515 1516 1517 1518 1519 1520 1521 1521 1522 1523 1524 1525
1462 1477 1485 1473 1459 1454 1461 1470 1484 1504 1509 1514 1521 1516 1485 1485 1486 1489 1492 1495 1497 1498 1500 1502 1504 1507 1510 1511 1512 1513 1514 1515 1515 1516 1516 1516 1517 1517 1518 1518 1519 1520 1520 1522
1457 1475 1490 1486 1475 1461 1462 1465 1472 1484 1499 1511 1518 1511 1487 1485 1487 1488 1490 1494 1497 1499 1500 1502 1504 1507 1510 1512 1513 1514 1514 1515 1516 1515 1515 1515 1515 1516 1516 1516 1516 1517 1517 1518
1446 1467 1480 1488 1481 1467 1465 1463 1466 1481 1499 1503 1501 1499 1492 1488 1488 1489 1490 1494 1496 1498 1501 1503 1505 1508 1510 1512 1513 1514 1515 1516 1516 1516 1515 1515 1515 1515 1515 1514 1514 1514 1515 1516
1445 1462 1463 1463 1458 1457 1459 1461 1462 1471 1478 1488 1488 1489 1486 1484 1484 1486 1488 1493 1496 1499 1501 1504 1507 1509 1510 1512 1513 1514 1515 1515 1516 1516 1515 1515 1515 1515 1514 1513 1513 1513 1514 1514
1448 1458 1460 1461 1455 1455 1459 1459 1459 1462 1465 1473 1478 1484 1479 1482 1484 1485 1488 1492 1496 1498 1501 1505 1508 1510 1511 1512 1513 1514 1514 1515 1516 1516 1515 1515 1515 1514 1514 1513 1513 1513 1513 1514
1454 1459 1468 1472 1460 1460 1471 1462 1460 1461 1460 1466 1476 1476 1476 1481 1483 1484 1488 1493 1497 1499 1502 1504 1506 1510 1511 1513 1514 1514 1515 1515 1515 1516 1516 1516 1515 1514 1514 1513 1513 1513 1514 1514
1454 1461 1471 1474 1469 1482 1472 1454 1453 1456 1458 1458 1460 1465 1470 1474 1480 1484 1487 1490 1495 1499 1501 1504 1506 1508 1510 1512 1514 1515 1515 1515 1516 1516 1516 1516 1516 1515 1514 1514 1513 1514 1515 1515
1447 1457 1470 1480 1482 1477 1463 1455 1455 1459 1465 1459 1461 1467 1473 1477 1482 1488 1489 1491 1493 1497 1500 1503 1506 1508 1510 1511 1513 1514 1515 1515 1516 1516 1516 1516 1516 1515 1515 1514 1514 1515 1515 1516
1448 1452 1466 1476 1480 1484 1467 1453 1450 1456 1471 1462 1462 1467 1471 1475 1485 1488 1489 1491 1494 1497 1500 1503 1506 1508 1509 1511 1513 1514 1515 1515 1516 1516 1516 1516 1516 1516 1516 1515 1516 1516 1516 1517
1460 1462 1468 1474 1477 1471 1456 1451 1451 1469 1472 1463 1463 1467 1470 1474 1477 1483 1487 1491 1494 1497 1500 1503 1505 1507 1509 1511 1512 1513 1514 1515 1516 1516 1516 1516 1516 1516 1517 1517 1517 1517 1518 1518
1466 1468 1470 1473 1477 1475 1452 1451 1455 1459 1457 1459 1463 1467 1471 1474 1478 1483 1487 1491 1495 1497 1500 1502 1505 1507 1509 1510 1512 1513 1513 1515 1516 1516 1516 1516 1517 1517 1518 1518 1518 1519 1519 1520
1463 1464 1464 1466 1466 1456 1451 1450 1451 1451 1454 1459 1462 1467 1471 1475 1480 1485 1489 1492 1496 1499 1501 1503 1505 1507 1509 1511 1512 1512 1514 1515 1516 1516 1517 1517 1518 1518 1519 1519 1520 1520 1521 1522
1461 1459 1460 1461 1459 1455 1453 1452 1453 1453 1454 1458 1462 1467 1471 1474 1480 1486 1490 1494 1496 1499 1502 1504 1506 1507 1509 1511 1512 1513 1514 1515 1516 1516 1517 1518 1518 1519 1520 1520 1521 1522 1522 1523
1462 1460 1461 1462 1460 1458 1458 1456 1456 1456 1457 1461 1466 1470 1472 1474 1481 1487 1491 1494 1497 1499 1502 1504 1506 1507 1509 1511 1512 1514 1515 1516 1516 1517 1518 1519 1520 1521 1521 1522 1522 1523 1524 1525
1460 1460 1462 1462 1460 1460 1461 1460 1459 1459 1460 1463 1466 1472 1476 1478 1482 1487 1491 1494 1497 1500 1502 1504 1506 1508 1509 1511 1513 1514 1516 1516 1517 1518 1519 1520 1521 1522 1523 1523 1524 1525 1526 1527